FW8710 Weather Reports


Display with metric or nautical units.
time (UTC)temp
F
wind
direction
speed
MPH
gust
MPH
rain 1hr
in
rain 24hr
in
rain mn
in
humidity
%
barometer
mb
20260504023043 57 192 6.0 10.0 0.00 0.07 0.07 69 1007.0
20260504021541 57 198 6.0 10.0 0.00 0.07 0.07 68 1006.9
20260504020041 58 198 7.0 10.0 0.00 0.07 0.07 67 1006.8
20260504014553 58 200 8.0 12.0 0.00 0.07 0.07 66 1006.7
20260504013102 58 192 8.0 11.0 0.00 0.07 0.07 66 1006.6
20260504011543 59 219 7.0 10.0 0.00 0.07 0.07 64 1006.5
20260504010043 61 204 8.0 14.0 0.00 0.07 0.07 62 1006.5
20260504004538 63 207 8.0 16.0 0.00 0.07 0.07 59 1006.4
20260504003037 64 210 10.0 16.0 0.00 0.07 0.07 57 1006.4
20260504001543 65 203 10.0 18.0 0.00 0.07 0.07 56 1006.6
20260504000043 66 202 12.0 19.0 0.00 0.07 0.07 54 1006.5
20260503234538 67 211 12.0 23.0 0.00 0.07 0.07 55 1006.6
20260503233039 68 238 14.0 21.0 0.00 0.07 0.07 52 1006.6
20260503231537 68 205 16.0 25.0 0.00 0.07 0.07 53 1006.6
20260503230045 69 211 16.0 24.0 0.00 0.07 0.07 53 1006.7
20260503224543 69 217 18.0 25.0 0.00 0.07 0.07 51 1006.8
20260503223039 69 244 17.0 27.0 0.00 0.07 0.07 51 1006.7
20260503221537 66 194 17.0 26.0 0.00 0.07 0.07 53 1006.9
20260503220047 68 206 15.0 24.0 0.00 0.07 0.07 50 1007.1
20260503214542 66 213 14.0 19.0 0.00 0.07 0.07 56 1007.1
20260503213044 65 181 14.0 23.0 0.00 0.07 0.07 53 1007.2
20260503211544 65 215 16.0 23.0 0.00 0.07 0.07 51 1007.4
20260503210044 66 179 11.0 25.0 0.00 0.07 0.07 53 1008.0
20260503204553 65 200 17.0 26.0 0.00 0.07 0.07 52 1008.4
20260503203049 64 223 18.0 31.0 0.00 0.07 0.07 51 1008.8
20260503201546 64 191 22.0 31.0 0.00 0.07 0.07 50 1009.0
20260503200037 64 194 16.0 31.0 0.00 0.07 0.07 52 1009.2
20260503194546 67 205 23.0 40.0 0.00 0.07 0.07 48 1009.6
20260503193048 66 189 21.0 33.0 0.00 0.07 0.07 55 1009.6
20260503191603 65 183 16.0 32.0 0.00 0.07 0.07 55 1009.7
20260503190037 63 184 16.0 31.0 0.00 0.07 0.07 63 1009.8
20260503184538 62 184 15.0 27.0 0.00 0.07 0.07 63 1010.1
20260503183042 60 149 9.0 25.0 0.00 0.07 0.07 67 1010.4
20260503181547 57 194 6.0 17.0 0.00 0.07 0.07 72 1010.9
20260503180040 54 153 3.0 11.0 0.00 0.07 0.07 78 1011.3
20260503174545 50 80 1.0 8.0 0.00 0.07 0.07 83 1011.8
20260503173042 49 95 1.0 8.0 0.01 0.07 0.07 82 1012.3
20260503171539 48 183 1.0 8.0 0.02 0.07 0.07 84 1013.3
20260503081540 36 211 4.0 6.0 0.00 0.00 0.00 78 1015.6
20260503071536 38 201 3.0 6.0 0.00 0.00 0.00 77 1015.7
20260503054558 39 202 4.0 7.0 0.00 0.00 0.00 75 1016.4
20260503053036 38 198 4.0 8.0 0.00 0.00 0.00 77 1016.5
20260503051538 37 207 5.0 7.0 0.00 0.00 0.00 77 1016.7
20260503050037 37 209 4.0 7.0 0.00 0.00 0.00 75 1016.7
20260503044541 38 209 1.0 5.0 0.00 0.00 0.00 75 1016.8
20260503043051 38 0 0.0 4.0 0.00 0.00 0.00 75 1016.7
20260503041542 39 225 1.0 2.0 0.00 0.00 0.00 75 1016.9
20260503040038 39 238 1.0 3.0 0.00 0.00 0.00 75 1017.0
20260503034544 40 238 1.0 3.0 0.00 0.00 0.00 74 1017.0
20260503033035 40 203 0.0 3.0 0.00 0.00 0.00 72 1016.9
20260503031535 41 0 0.0 1.0 0.00 0.00 0.00 71 1017.0
20260503030040 41 0 0.0 0.0 0.00 0.00 0.00 71 1017.1
20260503024538 42 0 0.0 0.0 0.00 0.00 0.00 70 1017.1